Home > Weather > Sharjah > Past weeks

Flag for United Arab Emirates Weather for the Past 2 Weeks in Sharjah, Sharjah, United Arab Emirates

Now
79 °F

Clear.


Feels Like: 82 °F
Forecast: 81 / 89 °F
Wind: 2 mph from East

Location: Sharjah International Airport

Current Time: May 1, 2016 at 2:43:44 AM

Latest Report: May 1, 2016 at 2:00 AM


Visibility: 10 mi

Pressure: 29.77 "Hg

Humidity: 79%

Dew Point: 72 °F

Location of SharjahLocation

Historic Weather in Sharjah — Graph

°F

Sharjah Temperature Yesterday

Maximum temperature yesterday: 102 °F (at 2:00 PM)
Minimum temperature yesterday: 79 °F (at 5:00 AM)
Average temperature yesterday: 90 °F

High & Low Weather Summary for the Past Weeks

 TemperatureHumidityPressure
High104 °F (Apr 29, 11:00 AM)83% (Apr 16, 3:00 AM)29.98 "Hg (Apr 16, 3:00 AM)
Low64 °F (Apr 23, 6:00 AM)12% (Apr 29, 2:00 PM)29.71 "Hg (Apr 25, 2:00 AM)
Average82 °F46%29.83 "Hg
* Reported Apr 16 1:00 AM — May 1 1:00 AM, Sharjah, Weather by CustomWeather, © 2016

Note: Actual official high and low records may vary slightly from our data, if they occured in-between our weather recording intervals... More about our weather records

Advertising

Sharjah Weather History for the Previous 24 Hours

Scroll right to see more
 ConditionsComfort  
Time TempWeatherWind HumidityBarometerVisibility
1:00 AM
Sun, May 1
81 °FClear.1 mph79%29.80 "Hg10 mi
12:00 AM82 °FClear.10 mph74%29.83 "Hg10 mi
11:00 PM
Sat, Apr 30
86 °FClear.8 mph55%29.83 "Hg10 mi
10:00 PM86 °FPassing clouds.10 mph59%29.86 "HgN/A
9:00 PM90 °FClear.8 mph27%29.83 "Hg10 mi
8:00 PM90 °FClear.12 mph36%29.80 "Hg10 mi
7:00 PM91 °FClear.10 mph20%29.77 "Hg10 mi
6:00 PM95 °FSunny.7 mph16%29.77 "Hg10 mi
5:00 PM97 °FSunny.8 mph17%29.77 "Hg10 mi
4:00 PM100 °FSunny.7 mph12%29.74 "Hg10 mi
3:00 PM100 °FSunny.14 mph15%29.74 "Hg10 mi
2:00 PM102 °FSunny.5 mph13%29.77 "Hg10 mi
1:00 PM99 °FSunny.1 mph18%29.77 "Hg10 mi
12:00 PM99 °FSunny.No wind17%29.80 "Hg10 mi
11:00 AM95 °FSunny.2 mph25%29.83 "Hg10 mi
10:00 AM95 °FSunny.5 mph25%29.83 "Hg10 mi
9:00 AM91 °FSunny.8 mph36%29.80 "Hg10 mi
8:00 AM90 °FSunny.2 mph33%29.80 "Hg10 mi
7:00 AM82 °FSunny.1 mph62%29.77 "Hg10 mi
6:00 AM82 °FSunny.10 mph58%29.77 "Hg10 mi
5:00 AM79 °FClear.No wind39%29.74 "Hg10 mi
4:00 AM81 °FClear.No wind37%29.71 "Hg10 mi
3:00 AM82 °FClear.No wind32%29.71 "Hg10 mi
2:00 AM81 °FClear.3 mph37%29.71 "Hg10 mi
Weather by CustomWeather, © 2016

See weather overviewHow to use our weather pages